shoulder
new_line
new_line
first
second
third
Al di la della Luna; Beyond the Moon; Astrophotography; Astrofotografia; Danilo Pivato
 
 
         
         
2024

Orbital Elements

Epoch 2024 March 31.0  TT = JDT 2460400.5
T 2024 April  20.60073 TT                                                                     Rudenko
q   2.0245987            (2000.0)                             P                     Q
n   0.10146275    Peri.    54.66778           -0.31889686     +0.93734573
a   4.5526575      Node   54.53010           +0.80405617    +0.34593405
e   0.5552930      Incl.       9.92075           +0.50179525    -0.04138383
P   9.71
 
 
         
         
2024.05.07
 
         
         
       
         
         
         
         
         
         
         
         
         
         
         

 

       
 
Since: 01/01/2004
 
       
 
Since: 01/11/2010